Location: Berg
(47.2344°N, 9.5296°E)
Time: 22:24:31
(UTC+00:00)

SAR-Lupe-4 - Pass Details

Date: 24 January 2021
Orbit: 480 x 484 km, 98.2° (Epoch: 02 March)

Event Time Altitude Azimuth Distance (km) Brightness Sun altitude
Exits shadow 18:24:14 35° 349° (N) 805 4.6 -22.2°
Maximum altitude 18:25:29 57° 288° (WNW) 575 4.1 -22.5°
Drops below altitude 10° 18:28:59 10° 209° (SSW) 1,656 6.6 -23.0°
Sets 18:31:03 0° 205° (SSW) 2,530 7.6 -23.4°
